Flag for Brazil Weather past 2 weeks in Porto Acre, Acre, Brazil

91 °F

Scattered showers. Scattered clouds.

Feels Like: 103 °F
Forecast: 76 / 99 °F
Wind: 5 mph from North

Location: Rio Branco Airport

Current Time: Nov 25, 2015 at 1:55:32 PM

Latest Report: Nov 25, 2015 at 1:00 PM

Visibility: N/A

Pressure: N/A

Humidity: 59%

Dew point: 75 °F

Location of Porto AcreLocation

Historic Weather in Porto Acre — Graph


Porto Acre temperature yesterday

Maximum temperature yesterday: 93 °F (at 2:00 PM)
Minimum temperature yesterday: 75 °F (at 2:00 AM)
Average temperature yesterday: 82 °F

Past Weeks' High & Low Weather Summary

High95 °F (Nov 14, 1:00 PM)100% (Nov 11, 5:00 AM)29.95 "Hg (Nov 11, 5:00 AM)
Low39 °F (Nov 22, 8:00 AM)44% (Nov 15, 2:00 PM)29.62 "Hg (Nov 20, 4:00 PM)
Average82 °F76%29.79 "Hg
* Reported Nov 10 1:00 PM — Nov 25 1:00 PM, Porto Acre, Weather by CustomWeather, © 2015

Note: Actual official high and low records may vary slightly from our data, if they occured in-between our weather recording intervals... More about our weather records


Porto Acre weather history for previous 24 hours

Time TempWeatherWind HumidityBarometerVisibility
1:00 PM
Wed, Nov 25
91 °FScattered showers. Scattered clouds.5 mph59%N/AN/A
12:00 PM86 °FLight rain. Scattered clouds.14 mph75%29.83 "HgN/A
11:00 AM91 °FScattered clouds.9 mph56%29.83 "HgN/A
10:00 AM90 °FPassing clouds.9 mph63%29.86 "HgN/A
9:00 AM86 °FPassing clouds.10 mph66%29.86 "HgN/A
8:00 AM84 °FSunny.9 mph70%29.86 "Hg10 mi
7:00 AM81 °FSunny.7 mph79%29.83 "Hg10 mi
6:00 AM77 °FSunny.5 mph83%29.80 "Hg10 mi
5:00 AM75 °FClear.5 mph89%29.77 "Hg10 mi
4:00 AM75 °FClear.2 mph89%29.74 "Hg10 mi
3:00 AM75 °FClear.5 mph89%29.74 "Hg10 mi
2:00 AM75 °FClear.7 mph89%29.74 "Hg10 mi
1:00 AM75 °FClear.5 mph89%29.77 "Hg10 mi
12:00 AM75 °FClear.5 mph89%29.77 "Hg10 mi
11:00 PM
Tue, Nov 24
77 °FClear.5 mph83%29.80 "Hg10 mi
10:00 PM77 °FClear.5 mph83%29.80 "Hg10 mi
9:00 PM79 °FClear.5 mph79%29.77 "Hg10 mi
8:00 PM79 °FClear.3 mph79%29.74 "Hg10 mi
7:00 PM81 °FClear.6 mph74%29.71 "Hg10 mi
6:00 PM82 °FScattered clouds.10 mph74%29.68 "HgN/A
5:00 PM88 °FPassing clouds.9 mph62%29.68 "HgN/A
4:00 PM90 °FScattered clouds.10 mph59%29.68 "HgN/A
3:00 PM93 °FScattered clouds.9 mph49%29.68 "HgN/A
2:00 PM93 °FScattered clouds.8 mph49%29.71 "HgN/A
1:00 PM91 °FScattered clouds.8 mph59%29.74 "HgN/A
Weather by CustomWeather, © 2015

See weather overviewHow to use our weather pages